Meteo orario 1-e Yuldybaevo

Oggi, 4 Marzo, Giovedi

Tempo Temperatura Precipitazioni Vento Pressione Umidità
00:00 -6°C° 0.1 mm 1 m/s 728 mm Hg 96%
01:00 -8°C° 0.1 mm 1 m/s 728 mm Hg 96%
02:00 -8°C° 0 mm 1 m/s 728 mm Hg 96%
03:00 -9°C° 0 mm 1 m/s 728 mm Hg 96%
04:00 -8°C° 0 mm 1 m/s 728 mm Hg 98%
05:00 -9°C° 0.1 mm 1 m/s 728 mm Hg 97%
06:00 -12°C° 0.1 mm 2 m/s 729 mm Hg 97%
07:00 -12°C° 0.1 mm 2 m/s 729 mm Hg 96%
08:00 -10°C° 0.1 mm 2 m/s 730 mm Hg 95%
09:00 -10°C° 0.1 mm 3 m/s 730 mm Hg 94%
10:00 -9°C° 0 mm 3 m/s 730 mm Hg 92%
11:00 -10°C° 0 mm 4 m/s 731 mm Hg 92%
12:00 -10°C° 0 mm 4 m/s 731 mm Hg 91%
13:00 -10°C° 0 mm 5 m/s 731 mm Hg 90%
14:00 -10°C° 0.2 mm 5 m/s 731 mm Hg 91%
15:00 -10°C° 0.2 mm 6 m/s 731 mm Hg 92%
16:00 -10°C° 0.2 mm 6 m/s 731 mm Hg 93%
17:00 -10°C° 0.3 mm 6 m/s 731 mm Hg 93%
18:00 -11°C° 0.3 mm 7 m/s 731 mm Hg 93%
19:00 -11°C° 0.3 mm 7 m/s 731 mm Hg 93%
20:00 -9°C° 0.6 mm 7 m/s 730 mm Hg 94%
21:00 -10°C° 0.6 mm 8 m/s 730 mm Hg 94%
22:00 -8°C° 0.6 mm 8 m/s 730 mm Hg 94%
23:00 -7°C° 0.9 mm 8 m/s 729 mm Hg 94%

Domani, 5 Marzo, Venerdi

Tempo Temperatura Precipitazioni Vento Pressione Umidità
00:00 -8°C° 0.9 mm 9 m/s 729 mm Hg 94%
01:00 -6°C° 0.9 mm 9 m/s 728 mm Hg 95%
02:00 -6°C° 0.6 mm 9 m/s 729 mm Hg 95%
03:00 -6°C° 0.6 mm 8 m/s 729 mm Hg 95%
04:00 -6°C° 0.6 mm 8 m/s 729 mm Hg 94%
05:00 -7°C° 0.3 mm 8 m/s 730 mm Hg 94%
06:00 -7°C° 0.3 mm 8 m/s 730 mm Hg 94%
07:00 -8°C° 0.3 mm 8 m/s 730 mm Hg 94%
08:00 -8°C° 0.6 mm 8 m/s 730 mm Hg 94%
09:00 -8°C° 0.6 mm 8 m/s 730 mm Hg 94%
10:00 -7°C° 0.6 mm 8 m/s 730 mm Hg 95%
11:00 -7°C° 1.1 mm 8 m/s 730 mm Hg 95%
12:00 -6°C° 1.1 mm 9 m/s 730 mm Hg 95%
13:00 -6°C° 1.1 mm 9 m/s 729 mm Hg 95%
14:00 -5°C° 1.1 mm 8 m/s 729 mm Hg 96%
15:00 -5°C° 1.1 mm 8 m/s 729 mm Hg 96%
16:00 -4°C° 1.1 mm 8 m/s 729 mm Hg 96%
17:00 -4°C° 1.1 mm 8 m/s 729 mm Hg 96%
18:00 -4°C° 1.1 mm 8 m/s 730 mm Hg 96%
19:00 -4°C° 1.1 mm 8 m/s 730 mm Hg 96%
20:00 -4°C° 0.4 mm 6 m/s 730 mm Hg 96%
21:00 -4°C° 0.4 mm 5 m/s 731 mm Hg 96%
22:00 -4°C° 0.4 mm 4 m/s 732 mm Hg 96%
23:00 -5°C° 0.4 mm 3 m/s 732 mm Hg 96%

Dopodomani, 6 Marzo, Sabato

Tempo Temperatura Precipitazioni Vento Pressione Umidità
00:00 -5°C° 0.4 mm 2 m/s 732 mm Hg 96%
01:00 -4°C° 0.4 mm 1 m/s 733 mm Hg 96%
02:00 -6°C° 0 mm 1 m/s 733 mm Hg 96%
03:00 -7°C° 0 mm 1 m/s 734 mm Hg 96%
04:00 -8°C° 0 mm 1 m/s 734 mm Hg 96%
05:00 -9°C° 0 mm 1 m/s 735 mm Hg 96%
06:00 -11°C° 0 mm 0 m/s 735 mm Hg 97%
07:00 -12°C° 0 mm 0 m/s 735 mm Hg 97%
08:00 -10°C° 0 mm 0 m/s 736 mm Hg 95%
09:00 -8°C° 0 mm 0 m/s 736 mm Hg 93%
10:00 -6°C° 0 mm 0 m/s 736 mm Hg 91%
11:00 -6°C° 0 mm 1 m/s 736 mm Hg 86%
12:00 -4°C° 0 mm 1 m/s 736 mm Hg 82%
13:00 -5°C° 0 mm 2 m/s 736 mm Hg 78%
14:00 -5°C° 0 mm 2 m/s 736 mm Hg 80%
15:00 -6°C° 0 mm 2 m/s 736 mm Hg 82%
16:00 -4°C° 0 mm 1 m/s 736 mm Hg 83%
17:00 -6°C° 0 mm 1 m/s 735 mm Hg 84%
18:00 -7°C° 0 mm 1 m/s 735 mm Hg 86%
19:00 -8°C° 0 mm 0 m/s 735 mm Hg 87%
20:00 -8°C° 0 mm 0 m/s 734 mm Hg 87%
21:00 -8°C° 0 mm 0 m/s 734 mm Hg 88%
22:00 -8°C° 0 mm 0 m/s 733 mm Hg 89%
23:00 -8°C° 0.3 mm 1 m/s 733 mm Hg 91%

7 Marzo, Domenica

Tempo Temperatura Precipitazioni Vento Pressione Umidità
00:00 -8°C° 0.3 mm 1 m/s 732 mm Hg 93%
01:00 -9°C° 0.3 mm 2 m/s 731 mm Hg 96%
02:00 -9°C° 0.3 mm 2 m/s 731 mm Hg 96%
03:00 -9°C° 0.3 mm 2 m/s 731 mm Hg 95%
04:00 -9°C° 0.3 mm 2 m/s 730 mm Hg 95%
05:00 -9°C° 0.3 mm 2 m/s 730 mm Hg 95%
06:00 -9°C° 0.3 mm 2 m/s 730 mm Hg 95%
07:00 -9°C° 0.3 mm 2 m/s 730 mm Hg 95%
08:00 -10°C° 0.3 mm 3 m/s 730 mm Hg 95%
09:00 -12°C° 0.3 mm 3 m/s 730 mm Hg 94%
10:00 -12°C° 0.3 mm 3 m/s 731 mm Hg 94%
11:00 -12°C° 0 mm 3 m/s 731 mm Hg 94%
12:00 -12°C° 0 mm 4 m/s 732 mm Hg 93%
13:00 -12°C° 0 mm 4 m/s 732 mm Hg 93%
14:00 -14°C° 0 mm 4 m/s 732 mm Hg 93%
15:00 -15°C° 0 mm 4 m/s 733 mm Hg 93%
16:00 -17°C° 0 mm 5 m/s 733 mm Hg 93%
17:00 -18°C° 0 mm 4 m/s 734 mm Hg 95%
18:00 -19°C° 0 mm 3 m/s 734 mm Hg 96%
19:00 -20°C° 0 mm 2 m/s 735 mm Hg 98%
20:00 -19°C° 0 mm 1 m/s 735 mm Hg 99%
21:00 -20°C° 0 mm 1 m/s 736 mm Hg 99%
22:00 -21°C° 0 mm 0 m/s 736 mm Hg 99%
23:00 -21°C° 0 mm 1 m/s 736 mm Hg 99%

8 Marzo, Lunedi

Tempo Temperatura Precipitazioni Vento Pressione Umidità
00:00 -20°C° 0 mm 1 m/s 736 mm Hg 98%
01:00 -20°C° 0 mm 1 m/s 736 mm Hg 98%
02:00 -23°C° 0 mm 2 m/s 736 mm Hg 98%
03:00 -23°C° 0 mm 2 m/s 736 mm Hg 98%
04:00 -23°C° 0 mm 3 m/s 736 mm Hg 98%
05:00 -22°C° 0.1 mm 3 m/s 735 mm Hg 97%
06:00 -22°C° 0.1 mm 4 m/s 735 mm Hg 96%
07:00 -19°C° 0.1 mm 4 m/s 734 mm Hg 95%
08:00 -19°C° 0.2 mm 5 m/s 734 mm Hg 94%
09:00 -17°C° 0.2 mm 6 m/s 734 mm Hg 94%
10:00 -17°C° 0.2 mm 7 m/s 733 mm Hg 93%
11:00 -15°C° 0.4 mm 8 m/s 733 mm Hg 93%
12:00 -12°C° 0.4 mm 8 m/s 733 mm Hg 93%
13:00 -10°C° 0.4 mm 9 m/s 733 mm Hg 93%
14:00 -10°C° 0.4 mm 8 m/s 733 mm Hg 93%
15:00 -8°C° 0.4 mm 8 m/s 733 mm Hg 93%
16:00 -8°C° 0.4 mm 8 m/s 734 mm Hg 93%
17:00 -8°C° 0.3 mm 7 m/s 733 mm Hg 94%
18:00 -8°C° 0.3 mm 7 m/s 733 mm Hg 94%
19:00 -9°C° 0.3 mm 7 m/s 733 mm Hg 94%
20:00 -9°C° 0.5 mm 7 m/s 733 mm Hg 94%
21:00 -10°C° 0.5 mm 8 m/s 733 mm Hg 93%
22:00 -10°C° 0.5 mm 9 m/s 733 mm Hg 93%
23:00 -9°C° 0.5 mm 9 m/s 732 mm Hg 93%

9 Marzo, Martedi

Tempo Temperatura Precipitazioni Vento Pressione Umidità
00:00 -9°C° 0.5 mm 9 m/s 732 mm Hg 93%
01:00 -9°C° 0.5 mm 10 m/s 732 mm Hg 93%
02:00 -9°C° 0.5 mm 9 m/s 732 mm Hg 93%
03:00 -9°C° 0.5 mm 9 m/s 732 mm Hg 92%
04:00 -9°C° 0.5 mm 9 m/s 733 mm Hg 91%
05:00 -12°C° 0.2 mm 7 m/s 733 mm Hg 87%
06:00 -14°C° 0.2 mm 6 m/s 734 mm Hg 84%
07:00 -15°C° 0.2 mm 4 m/s 734 mm Hg 80%
08:00 -15°C° 0 mm 4 m/s 735 mm Hg 84%
09:00 -14°C° 0 mm 4 m/s 736 mm Hg 87%
10:00 -14°C° 0 mm 4 m/s 737 mm Hg 91%
11:00 -12°C° 0 mm 3 m/s 737 mm Hg 91%
12:00 -12°C° 0 mm 3 m/s 738 mm Hg 90%
13:00 -10°C° 0 mm 3 m/s 738 mm Hg 90%
14:00 -10°C° 0 mm 3 m/s 739 mm Hg 90%
15:00 -9°C° 0 mm 2 m/s 739 mm Hg 91%
16:00 -9°C° 0 mm 2 m/s 739 mm Hg 91%
17:00 -12°C° 0 mm 2 m/s 739 mm Hg 93%
18:00 -14°C° 0 mm 2 m/s 739 mm Hg 95%
19:00 -14°C° 0 mm 1 m/s 739 mm Hg 98%
20:00 -14°C° 0 mm 1 m/s 740 mm Hg 97%
21:00 -15°C° 0 mm 1 m/s 740 mm Hg 96%
22:00 -15°C° 0 mm 1 m/s 740 mm Hg 96%
23:00 -15°C° 0 mm 1 m/s 740 mm Hg 93%
Mostrare altro

Abbiamo bisogno del tuo consenso

Meteoprog e i nostri fornitori di servizi possono memorizzare e accedere a dati personali come cookie, identificatori di dispositivi o altre tecnologie simili sul tuo dispositivo e possono elaborare tali dati per personalizzare i contenuti e gli annunci, nonché fornire funzionalità dei social media e analizzarne il traffico.

  • Archiviare e/o accedere alle informazioni sul tuo dispositivo

    Cookie, identificatori di dispositivi o altre informazioni possono essere memorizzati o resi accessibili sul tuo dispositivo per le finalità sopra indicate.

  • Annunci e contenuti personalizzati, misurazione di annunci e contenuti, approfondimenti sul pubblico e sviluppo di prodotti

    Gli annunci e i contenuti possono essere personalizzati in base a un profilo. È possibile aggiungere più dati per personalizzare meglio annunci e contenuti. È possibile misurare il rendimento degli annunci e dei contenuti. È possibile ricavare informazioni sul pubblico che ha visto gli annunci e i contenuti. Tali dati possono essere utilizzati per sviluppare o migliorare l'esperienza, i sistemi e il software dell'utente.

Cliccando su “Accetto”, acconsenti all'uso di cookie, identificatori di dispositivo, web beacon o altre tecnologie simili. Puoi modificare le impostazioni nel browser del tuo dispositivo.

Per determinati scopi, è possibile fare affidamento su interessi legali, piuttosto che sul consenso. Puoi approfondire questo argomento consultando la nostra Informativa sulla privacy e sui cookie.